Other Public Products
Issued by NWS Grand Forks, ND

Home | Current Version | Previous Version | Text Only | Print | Product List | Glossary Off
Versions: 1 2 3 4 5 6 7 8 9 10 11 12 13 14 15 16 17 18 19 20 21 22 23 24 25 26 27 28 29 30 31 32 33 34 35 36 37 38 39 40 41 42 43 44 45 46 47 48 49 50

000
FPUS83 KFGF 270331
OPUFGF
PRAIRIE TO PINES WEATHER ROUNDUP
NATIONAL WEATHER SERVICE EASTERN NORTH DAKOTA/GRAND FORKS ND
1000 PM CDT SUN MAR 26 2017

 **SATELLITE DATA USED TO AUGMENT SKY COVER AT AUTOMATED STATIONS**
 *****  WEATHER ACROSS EASTERN NORTH DAKOTA  *****

CITY           SKY/WX    TMP DP  RH WIND       PRES   REMARKS
GRAND FORKS    CLOUDY    39  38  96 NE5       29.95S
GRAND FORKS AF FOG       32  32 100 CALM      29.95S VSB 1/2
GRAND CITY NWS NOT AVBL
BUXTON         NOT AVBL
DEVILS LAKE    FAIR      38  37  97 SE8       29.93S
FARGO          CLOUDY    38  36  92 E3        29.94F
WAHPETON ARPT    N/A     36  32  87 CALM      29.94F
$$

 *****  WEATHER ACROSS CENTRAL AND WESTERN NORTH DAKOTA  *****

CITY           SKY/WX    TMP DP  RH WIND       PRES   REMARKS
JAMESTOWN      FAIR      37  35  92 SE3       29.91F
BISMARCK       FAIR      42  36  79 SE6       29.91F
MINOT          MOCLDY    46  39  76 E7        29.88R
MINOT AFB      CLOUDY    45  38  79 E8        29.88R
GARRISON         N/A     48  36  63 S9        29.87F
WILLISTON      FAIR      47  24  40 N8        29.88R
DICKINSON      CLOUDY    49  29  46 NE5       29.87R
HETTINGER      FAIR      41  35  79 SW5       29.91R
$$

 *****  OTHER OBSERVATIONS NORTHEAST NORTH DAKOTA  *****

CITY           SKY/WX    TMP DP  RH WIND       PRES   REMARKS
WALHALLA       NOT AVBL
LANGDON        FOG       32  32 100 CALM      29.93F VSB<1/4
CAVALIER       FAIR      32  32 100 CALM      29.95S FOG
GRAFTON        FOG       34  34 100 CALM      29.97S VSB<1/4
CANDO          NOT AVBL
FORT TOTTEN    NOT AVBL
ROLLA          FAIR      34  34 100 SE6       29.91F
RUGBY          NOT AVBL
 ***** THE ABOVE OBSERVATIONS ARE NON NWS ARE NOT QUALITY
        CONTROLLED AND MAY MIS-REPORT RAIN FOR SNOW...
$$

 *****  OTHER OBSERVATIONS SOUTHEAST NORTH DAKOTA *****

CITY           SKY/WX    TMP DP  RH WIND       PRES   REMARKS
COOPERSTOWN    FAIR      36  36 100 E6        29.93F
VALLEY CITY    FAIR      39  39 100 CALM      29.94S
OAKES          NOT AVBL
GWINNER        PTCLDY    39  37  93 MISG      29.93S
SHEYENNE NWR     N/A     36  35  98 E3        29.95S
BUFFALO        NOT AVBL
WYNDMERE         N/A     34  34 100 S2          N/A
 ***** THE ABOVE OBSERVATIONS ARE NON NWS ARE NOT QUALITY
       CONTROLLED AND MAY MIS-REPORT RAIN FOR SNOW...
$$

  *****  WEATHER ACROSS NORTHERN MINNESOTA  *****

CITY           SKY/WX    TMP DP  RH WIND       PRES   REMARKS
FLAG ISLAND    FAIR      36  30  80 SE3       29.93S
WARROAD        FAIR      36  30  80 W3        29.94F
ROSEAU         FAIR      32  28  86 CALM      29.94F FOG
HALLOCK        FOG       32  30  93 CALM      29.95F VSB 1/4
THF RVR FALLS    N/A    N/A N/A N/A NW5       29.96S
HALSTAD          N/A     36  34  92 CALM        N/A
FOSSTON        FAIR      36  36 100 NW3       29.94F
BAUDETTE       FAIR      31  28  89 CALM      29.93F
WASKISH        CLOUDY    37  32  81 CALM      29.94S
CROOKSTON      FAIR      37  37 100 CALM      29.96F FOG
$$
  *****  WEATHER ACROSS CENTRAL AND WEST MINNESOTA  *****

CITY           SKY/WX    TMP DP  RH WIND       PRES   REMARKS
BEMIDJI        FAIR      34  30  86 CALM      29.93S
PARK RAPIDS    CLOUDY    41  30  65 SE5       29.92S
WADENA         FAIR      36  30  80 CALM      29.93S
DETROIT LAKES  FAIR      39  36  87 NW3       29.94F
MOORHEAD       MOCLDY    37  36  93 CALM      29.95S
FERGUS FALLS   FAIR      39  36  87 CALM      29.97F
ELBOW LAKE     FAIR      38  36  92 CALM      29.95R
MORRIS MN      FAIR      39  36  87 NW3       29.94R
STAPLES        CLOUDY    37  32  81 CALM      29.93S
WHEATON        FAIR      37  36  93 CALM      29.97R
$$
  *****  WEATHER ELSEWHERE ACROSS MINNESOTA  *****

CITY           SKY/WX    TMP DP  RH WIND       PRES   REMARKS
DULUTH         CLOUDY    32  31  96 CALM      29.92F FOG
INTRNTL FALLS  CLOUDY    36  30  79 CALM      29.93S
ELY            FAIR      28  28 100 CALM      29.92S
CLOQUET        FOG       32  30  93 CALM      29.92F VSB 3/4
BRAINERD       FAIR      34  30  85 CALM      29.93S
HIBBING        FAIR      29  29 100 CALM      29.91F
ALEXANDRIA     CLOUDY    42  35  76 NW3       29.93S
SAINT CLOUD    CLOUDY    37  37 100 CALM      29.94S
MINNEAPOLIS    CLOUDY    39  35  86 VRB7      29.95R
$$

  *****  WEATHER ACROSS SOUTH DAKOTA  *****

CITY           SKY/WX    TMP DP  RH WIND       PRES   REMARKS
SIOUX FALLS    CLOUDY    44  39  82 CALM      29.98R
BROOKINGS      CLOUDY    40  37  89 S6        29.95R
WATERTOWN      FAIR      34  33  96 CALM      29.93R
HURON          FAIR      40  37  89 S3        29.95R
SISSETON         N/A     38  36  92 CALM      29.94S
ABERDEEN       CLOUDY    40  35  83 SE3       29.93F
MITCHELL       CLOUDY    45  39  79 SW3       29.98R
PIERRE         FAIR      42  37  82 S5        29.93R
MOBRIDGE       CLOUDY    46  35  65 E3        29.89S
RAPID CITY     FAIR      38  38 100 W3        29.93S
$$

  *****  SOME WEATHER IN NEARBY STATES *****

CITY           SKY/WX    TMP DP  RH WIND       PRES   REMARKS
GLASGOW MT     FAIR      39  25  57 NE9       29.87S
GREAT FALLS MT CLOUDY    46  21  37 E3        29.81S
CHEYENNE WY    FAIR      37  32  82 CALM      29.97R
SCOTTSBLUFF NE FAIR      39  32  76 CALM      29.95R
OMAHA NE       CLOUDY    48  41  76 CALM      29.96F
DES MOINES IA  DRIZZLE   46  44  93 W3        29.96R FOG
DAVENPORT IA   CLOUDY    48  46  93 W7        29.93R
CHICAGO IL     CLOUDY    53  49  86 W12       29.88R
EAU CLAIRE WI  CLOUDY    42  38  85 NW3       29.90S
LA CROSSE WI   CLOUDY    42  41  96 NW5       29.91R
$$

  *****  SOME NATIONAL WEATHER *****

CITY           SKY/WX    TMP DP  RH WIND       PRES   REMARKS
LA GUARDIA NY  DRIZZLE   40  37  89 NE10      30.34F FOG
RALEIGH NC     CLOUDY    68  53  58 S12       30.17R
ATLANTA GA     FAIR      69  54  58 S3        30.08R
NEW ORLEANS LA FAIR      71  68  90 SE10      30.00S
OKLAHOMA CITY  FAIR      63  59  87 SE14      29.69R
ALBUQUERQUE NM FAIR      58  22  24 N8        29.99R
SALT LAKE CITY CLOUDY    51  32  48 SE7       29.95F
LOS ANGELES CA FAIR      59  54  83 SW9       30.02S
BOISE ID       CLOUDY    48  35  60 E10       29.87F
SEATTLE WA     LGT RAIN  47  46  97 S6        29.78R
$$

*** WEATHER ACROSS MANITOBA...SASKATCHEWAN AND ONTARIO ***
                ***ONTARIO***

CITY           SKY/WX    TMP DP  RH WIND       PRES   REMARKS
GERALDTON      CLOUDY    30  28  93 S3        29.89F
THUNDER BAY    CLOUDY    32  32 100 NE2       29.94F
SIOUX LOOKOUT  MOCLDY    28  27  93 CALM      29.90F
TORONTO        LGT RAIN  41  39  93 VRB3      29.96F
BIG TROUT LK   CLOUDY    34  27  75 NW10      29.90S
PICKLE LAKE    NOT AVBL
DRYDEN         MOCLDY    37  32  81 W5        29.91S
KENORA         PTCLDY    34  30  86 W5        29.92S
$$
                *** MANITOBA***

CITY           SKY/WX    TMP DP  RH WIND       PRES   REMARKS
BRANDON        CLOUDY    36  34  93 E7        29.94F
DAUPHIN        CLOUDY    34  32  93 NE6       29.92S
ISLAND LAKE    CLEAR     27  21  80 N7        29.97R WCI  19
PILOT MOUND      N/A     32  30  93 E9          N/A  WCI  24
THE PAS        PTCLDY    27  19  74 N5        30.00F WCI  21
THOMPSON       CLOUDY    23  18  80 N5        30.04R WCI  17
WINNIPEG       CLEAR     34  30  86 NE5       29.96F
LYNN LAKE      CLOUDY    23  18  80 NE6       30.04R WCI  16
CHURCHILL      LGT SNOW  12  10  92 N14       30.07R DRFTSNOWWCI  -3
GILLAM         FLURRIES  18  12  79 N12       30.02R WCI   5
$$
                ***SASKATCHEWAN***

CITY           SKY/WX    TMP DP  RH WIND       PRES   REMARKS
ESTEVAN        PTCLDY    34  32  93 NE6       29.88R
KINDERSLEY     CLOUDY    32  30  93 E13       29.87S FOG     WCI  22
LLOYDMINSTER   PTCLDY    34  32  93 E9        29.86F
PRINCE ALBERT  MOCLDY    27  23  86 E5        29.96S WCI  21
REGINA         PTCLDY    36  28  75 N8        29.86R
YORKTON        CLEAR     32  32 100 N6        29.88S



USA.gov is the U.S. government's official web portal to all federal, state and local government web resources and services.